Time,TemperatureF,DewpointF,PressureIn,WindDirection,WindDirectionDegrees,WindSpeedMPH,WindSpeedGustMPH,Humidity,HourlyPrecipIn,Conditions,Clouds,dailyrainin,SoftwareType,DateUTC
2013-11-27 00:01:00,23.9,17.4,29.97,North,355,6.9,6.9,76,0.00,CLR,,0.00,WeatherDisplay:10.37,2013-11-27 05:01:00,
2013-11-27 00:02:00,23.9,17.4,29.97,North,5,10.0,10.0,76,0.00,CLR,,0.00,WeatherDisplay:10.37,2013-11-27 05:02:00,
2013-11-27 00:04:00,23.8,17.3,29.97,North,355,4.6,4.6,76,0.00,CLR,,0.00,WeatherDisplay:10.37,2013-11-27 05:04:00,
2013-11-27 00:06:00,23.8,17.3,29.97,WNW,298,9.2,9.2,76,0.00,CLR,,0.00,WeatherDisplay:10.37,2013-11-27 05:06:00,
2013-11-27 00:11:00,23.6,17.4,29.97,NNE,16,3.5,3.5,77,0.00,CLR,,0.00,WeatherDisplay:10.37,2013-11-27 05:11:00,
2013-11-27 00:16:00,23.5,17.3,29.97,NW,305,11.5,11.5,77,0.00,CLR,,0.00,WeatherDisplay:10.37,2013-11-27 05:16:00,
2013-11-27 00:21:00,23.5,17.3,29.98,WNW,302,3.5,3.5,77,0.00,CLR,,0.00,WeatherDisplay:10.37,2013-11-27 05:21:00,
2013-11-27 00:26:00,23.4,17.3,29.98,West,277,10.4,10.4,77,0.00,CLR,,0.00,WeatherDisplay:10.37,2013-11-27 05:26:00,
2013-11-27 00:31:00,23.3,17.2,29.98,NNW,347,6.9,6.9,77,0.00,CLR,,0.00,WeatherDisplay:10.37,2013-11-27 05:31:00,
2013-11-27 00:36:00,23.1,17.0,29.98,NW,323,9.2,9.2,77,0.00,CLR,,0.00,WeatherDisplay:10.37,2013-11-27 05:36:00,
2013-11-27 00:41:00,23.0,16.9,29.98,North,360,12.7,12.7,77,0.00,CLR,,0.00,WeatherDisplay:10.37,2013-11-27 05:41:00,
2013-11-27 00:46:00,23.0,17.2,29.98,NE,49,0.0,0.0,78,0.00,CLR,,0.00,WeatherDisplay:10.37,2013-11-27 05:46:00,
2013-11-27 00:51:00,22.8,17.0,29.97,NE,41,9.2,9.2,78,0.00,CLR,,0.00,WeatherDisplay:10.37,2013-11-27 05:51:00,
2013-11-27 00:56:00,22.8,17.0,29.97,North,10,3.5,3.5,78,0.00,CLR,,0.00,WeatherDisplay:10.37,2013-11-27 05:56:00,
2013-11-27 01:01:00,22.7,16.6,29.97,NW,326,12.7,12.7,77,0.00,CLR,,0.00,WeatherDisplay:10.37,2013-11-27 06:01:00,
2013-11-27 01:06:00,22.6,16.5,29.98,NNW,333,3.5,3.5,77,0.00,CLR,,0.00,WeatherDisplay:10.37,2013-11-27 06:06:00,
2013-11-27 01:11:00,22.6,16.8,29.98,NW,304,2.3,2.3,78,0.00,CLR,,0.00,WeatherDisplay:10.37,2013-11-27 06:11:00,
2013-11-27 01:16:00,22.5,16.4,29.98,North,360,5.8,5.8,77,0.00,CLR,,0.00,WeatherDisplay:10.37,2013-11-27 06:16:00,
2013-11-27 01:21:00,22.4,16.0,29.97,WNW,284,11.5,11.5,76,0.00,CLR,,0.00,WeatherDisplay:10.37,2013-11-27 06:21:00,
2013-11-27 01:26:00,22.4,16.0,29.97,NNW,348,3.5,3.5,76,0.00,CLR,,0.00,WeatherDisplay:10.37,2013-11-27 06:26:00,
2013-11-27 01:31:00,22.3,15.9,29.97,NW,313,4.6,4.6,76,0.00,CLR,,0.00,WeatherDisplay:10.37,2013-11-27 06:31:00,
2013-11-27 01:36:00,22.2,16.1,29.97,NW,312,1.1,1.1,77,0.00,CLR,,0.00,WeatherDisplay:10.37,2013-11-27 06:36:00,
2013-11-27 01:41:00,22.1,16.0,29.97,WNW,300,3.5,3.5,77,0.00,CLR,,0.00,WeatherDisplay:10.37,2013-11-27 06:41:00,
2013-11-27 01:46:00,22.0,15.9,29.97,NW,322,9.2,9.2,77,0.00,CLR,,0.00,WeatherDisplay:10.37,2013-11-27 06:46:00,
2013-11-27 01:51:00,21.9,15.8,29.97,NNW,346,3.5,3.5,77,0.00,CLR,,0.00,WeatherDisplay:10.37,2013-11-27 06:51:00,
2013-11-27 01:56:00,21.8,15.7,29.97,NW,315,6.9,6.9,77,0.00,CLR,,0.00,WeatherDisplay:10.37,2013-11-27 06:56:00,
2013-11-27 02:01:00,21.7,15.6,29.97,WNW,303,2.3,2.3,77,0.00,CLR,,0.00,WeatherDisplay:10.37,2013-11-27 07:01:00,
2013-11-27 02:06:00,21.6,15.5,29.97,North,355,10.4,10.4,77,0.00,CLR,,0.00,WeatherDisplay:10.37,2013-11-27 07:06:00,
2013-11-27 02:11:00,21.5,15.4,29.98,NNE,16,6.9,6.9,77,0.00,CLR,,0.00,WeatherDisplay:10.37,2013-11-27 07:11:00,
2013-11-27 02:16:00,21.4,15.3,29.98,NW,325,2.0,2.0,77,0.00,CLR,,0.00,WeatherDisplay:10.37,2013-11-27 07:16:00,
2013-11-27 02:21:00,21.3,15.5,29.98,NW,326,0.0,0.0,78,0.00,CLR,,0.00,WeatherDisplay:10.37,2013-11-27 07:21:00,
2013-11-27 02:26:00,21.2,15.4,29.98,NW,317,0.0,0.0,78,0.00,CLR,,0.00,WeatherDisplay:10.37,2013-11-27 07:26:00,
2013-11-27 02:31:00,21.0,15.5,29.98,NW,317,0.0,0.0,79,0.00,CLR,,0.00,WeatherDisplay:10.37,2013-11-27 07:31:00,
2013-11-27 02:36:00,20.8,15.3,29.97,NW,317,0.0,0.0,79,0.00,CLR,,0.00,WeatherDisplay:10.37,2013-11-27 07:36:00,
2013-11-27 02:41:00,20.6,15.1,29.98,NW,320,3.5,3.5,79,0.00,CLR,,0.00,WeatherDisplay:10.37,2013-11-27 07:41:00,
2013-11-27 02:46:00,20.4,14.9,29.98,NW,319,0.0,0.0,79,0.00,CLR,,0.00,WeatherDisplay:10.37,2013-11-27 07:46:00,
2013-11-27 02:51:00,20.2,14.7,29.98,NW,321,2.3,2.3,79,0.00,CLR,,0.00,WeatherDisplay:10.37,2013-11-27 07:51:00,
2013-11-27 02:56:00,20.0,14.8,29.98,NW,320,3.5,3.5,80,0.00,CLR,,0.00,WeatherDisplay:10.37,2013-11-27 07:56:00,
2013-11-27 03:01:00,19.7,14.5,29.98,NW,320,1.1,0.0,80,0.00,CLR,,0.00,WeatherDisplay:10.37,2013-11-27 08:01:00,
2013-11-27 03:06:00,19.7,14.5,29.97,NW,319,1.0,1.0,80,0.00,CLR,,0.00,WeatherDisplay:10.37,2013-11-27 08:06:00,
2013-11-27 03:11:00,19.4,14.5,29.98,NW,311,2.3,2.3,81,0.00,CLR,,0.00,WeatherDisplay:10.37,2013-11-27 08:11:00,
2013-11-27 03:16:00,19.3,14.4,29.97,NW,311,3.0,3.0,81,0.00,CLR,,0.00,WeatherDisplay:10.37,2013-11-27 08:16:00,
2013-11-27 03:21:00,19.2,14.3,29.98,NW,309,0.0,0.0,81,0.00,CLR,,0.00,WeatherDisplay:10.37,2013-11-27 08:21:00,
2013-11-27 03:26:00,19.0,14.4,29.97,NW,309,0.0,0.0,82,0.00,CLR,,0.00,WeatherDisplay:10.37,2013-11-27 08:26:00,
2013-11-27 03:31:00,18.9,14.6,29.97,NW,305,3.0,3.0,83,0.00,CLR,,0.00,WeatherDisplay:10.37,2013-11-27 08:31:00,
2013-11-27 03:36:00,18.8,14.5,29.97,WNW,296,3.0,3.0,83,0.00,CLR,,0.00,WeatherDisplay:10.37,2013-11-27 08:36:00,
2013-11-27 03:41:00,18.7,14.4,29.97,WNW,297,0.0,0.0,83,0.00,CLR,,0.00,WeatherDisplay:10.37,2013-11-27 08:41:00,
2013-11-27 03:46:00,18.5,14.2,29.97,WNW,296,0.0,0.0,83,0.00,CLR,,0.00,WeatherDisplay:10.37,2013-11-27 08:46:00,
2013-11-27 03:51:00,18.5,14.5,29.97,WNW,298,0.0,0.0,84,0.00,CLR,,0.00,WeatherDisplay:10.37,2013-11-27 08:51:00,
2013-11-27 03:56:00,18.4,14.4,29.96,West,273,9.2,9.2,84,0.00,CLR,,0.00,WeatherDisplay:10.37,2013-11-27 08:56:00,
2013-11-27 04:01:00,18.3,14.3,29.97,West,271,3.5,3.5,84,0.00,CLR,,0.00,WeatherDisplay:10.37,2013-11-27 09:01:00,
2013-11-27 04:06:00,18.2,14.2,29.97,West,271,3.5,3.5,84,0.00,CLR,,0.00,WeatherDisplay:10.37,2013-11-27 09:06:00,
2013-11-27 04:11:00,18.2,14.4,29.97,West,265,3.5,3.5,85,0.00,CLR,,0.00,WeatherDisplay:10.37,2013-11-27 09:11:00,
2013-11-27 04:16:00,18.2,14.4,29.97,West,267,1.1,0.0,85,0.00,CLR,,0.00,WeatherDisplay:10.37,2013-11-27 09:16:00,
2013-11-27 04:21:00,18.0,14.3,29.96,West,265,0.0,0.0,85,0.00,CLR,,0.00,WeatherDisplay:10.37,2013-11-27 09:21:00,
2013-11-27 04:26:00,17.9,14.2,29.96,West,266,0.0,0.0,85,0.00,CLR,,0.00,WeatherDisplay:10.37,2013-11-27 09:26:00,
2013-11-27 04:31:00,17.8,14.1,29.96,West,265,3.5,0.0,85,0.00,CLR,,0.00,WeatherDisplay:10.37,2013-11-27 09:31:00,
2013-11-27 04:36:00,17.6,13.9,29.96,West,265,0.0,0.0,85,0.00,CLR,,0.00,WeatherDisplay:10.37,2013-11-27 09:36:00,
2013-11-27 04:41:00,17.5,14.0,29.97,West,266,3.0,0.0,86,0.00,CLR,,0.00,WeatherDisplay:10.37,2013-11-27 09:41:00,
2013-11-27 04:46:00,17.4,13.9,29.97,West,267,0.0,0.0,86,0.00,CLR,,0.00,WeatherDisplay:10.37,2013-11-27 09:46:00,
2013-11-27 04:51:00,17.3,13.8,29.97,West,267,2.3,0.0,86,0.00,CLR,,0.00,WeatherDisplay:10.37,2013-11-27 09:51:00,
2013-11-27 04:56:00,17.3,13.8,29.97,West,267,1.1,1.1,86,0.00,CLR,,0.00,WeatherDisplay:10.37,2013-11-27 09:56:00,
2013-11-27 05:01:00,17.1,13.6,29.97,West,265,0.0,0.0,86,0.00,CLR,,0.00,WeatherDisplay:10.37,2013-11-27 10:01:00,
2013-11-27 05:06:00,17.1,13.6,29.97,West,265,1.1,0.0,86,0.00,CLR,,0.00,WeatherDisplay:10.37,2013-11-27 10:06:00,
2013-11-27 05:11:00,17.0,13.8,29.97,West,264,3.5,3.5,87,0.00,CLR,,0.00,WeatherDisplay:10.37,2013-11-27 10:11:00,
2013-11-27 05:16:00,16.8,13.6,29.97,West,264,3.0,3.0,87,0.00,CLR,,0.00,WeatherDisplay:10.37,2013-11-27 10:16:00,
2013-11-27 05:21:00,16.8,13.6,29.97,West,265,2.3,2.3,87,0.00,CLR,,0.00,WeatherDisplay:10.37,2013-11-27 10:21:00,
2013-11-27 05:26:00,16.6,13.4,29.97,West,265,0.0,0.0,87,0.00,CLR,,0.00,WeatherDisplay:10.37,2013-11-27 10:26:00,
2013-11-27 05:31:00,16.6,13.4,29.97,West,267,0.0,0.0,87,0.00,CLR,,0.00,WeatherDisplay:10.37,2013-11-27 10:31:00,
2013-11-27 05:36:00,16.4,13.2,29.97,West,277,5.8,5.8,87,0.00,CLR,,0.00,WeatherDisplay:10.37,2013-11-27 10:36:00,
2013-11-27 05:41:00,16.4,13.2,29.98,West,277,3.5,3.5,87,0.00,CLR,,0.00,WeatherDisplay:10.37,2013-11-27 10:41:00,
2013-11-27 05:46:00,16.3,13.4,29.97,West,278,0.0,0.9,88,0.00,CLR,,0.00,WeatherDisplay:10.37,2013-11-27 10:46:00,
2013-11-27 05:51:00,16.3,13.4,29.97,West,278,3.5,0.0,88,0.00,CLR,,0.00,WeatherDisplay:10.37,2013-11-27 10:51:00,
2013-11-27 05:56:00,16.3,13.1,29.97,WNW,286,1.1,0.0,87,0.00,CLR,,0.00,WeatherDisplay:10.37,2013-11-27 10:56:00,
2013-11-27 06:01:00,16.2,13.0,29.97,WNW,286,2.3,0.0,87,0.00,CLR,,0.00,WeatherDisplay:10.37,2013-11-27 11:01:00,
2013-11-27 06:06:00,16.1,12.9,29.97,WNW,286,2.3,0.0,87,0.00,CLR,,0.00,WeatherDisplay:10.37,2013-11-27 11:06:00,
2013-11-27 06:11:00,15.9,12.7,29.97,WNW,285,3.5,3.5,87,0.00,CLR,,0.00,WeatherDisplay:10.37,2013-11-27 11:11:00,
2013-11-27 06:16:00,15.8,12.9,29.98,WNW,284,0.0,0.0,88,0.00,CLR,,0.00,WeatherDisplay:10.37,2013-11-27 11:16:00,
2013-11-27 06:22:00,15.8,12.9,29.98,WNW,283,1.1,0.0,88,0.00,CLR,,0.00,WeatherDisplay:10.37,2013-11-27 11:22:00,
2013-11-27 06:27:00,15.7,12.8,29.98,WNW,283,0.0,0.0,88,0.00,CLR,,0.00,WeatherDisplay:10.37,2013-11-27 11:27:00,
2013-11-27 06:32:00,15.6,12.7,29.98,WNW,283,0.0,0.0,88,0.00,CLR,,0.00,WeatherDisplay:10.37,2013-11-27 11:32:00,
2013-11-27 06:37:00,15.6,12.7,29.98,WNW,283,3.0,3.0,88,0.00,CLR,,0.00,WeatherDisplay:10.37,2013-11-27 11:37:00,
2013-11-27 06:42:00,15.5,12.6,29.98,WNW,282,0.0,0.0,88,0.00,CLR,,0.00,WeatherDisplay:10.37,2013-11-27 11:42:00,
2013-11-27 06:47:00,15.5,12.8,29.98,WNW,283,2.3,2.3,89,0.00,CLR,,0.00,WeatherDisplay:10.37,2013-11-27 11:47:00,
2013-11-27 06:52:00,15.5,12.8,29.98,WNW,283,0.0,0.0,89,0.00,CLR,,0.00,WeatherDisplay:10.37,2013-11-27 11:52:00,
2013-11-27 06:57:00,15.4,12.5,29.98,West,281,3.5,3.5,88,0.00,CLR,,0.00,WeatherDisplay:10.37,2013-11-27 11:57:00,
2013-11-27 07:02:00,15.4,12.7,29.98,West,281,2.3,2.3,89,0.00,CLR,,0.00,WeatherDisplay:10.37,2013-11-27 12:02:00,
2013-11-27 07:07:00,15.5,12.8,29.98,West,268,4.6,4.6,89,0.00,CLR,,0.00,WeatherDisplay:10.37,2013-11-27 12:07:00,
2013-11-27 07:12:00,15.5,12.8,29.98,West,268,3.5,3.5,89,0.00,CLR,,0.00,WeatherDisplay:10.37,2013-11-27 12:12:00,
2013-11-27 07:17:00,15.5,12.8,29.98,West,266,4.6,4.6,89,0.00,CLR,,0.00,WeatherDisplay:10.37,2013-11-27 12:17:00,
2013-11-27 07:22:00,15.6,12.9,29.98,West,260,4.6,4.6,89,0.00,CLR,,0.00,WeatherDisplay:10.37,2013-11-27 12:22:00,
2013-11-27 07:27:00,15.6,12.9,29.98,West,260,0.0,0.0,89,0.00,CLR,,0.00,WeatherDisplay:10.37,2013-11-27 12:27:00,
2013-11-27 07:32:00,15.6,12.7,29.99,West,260,0.0,0.0,88,0.00,CLR,,0.00,WeatherDisplay:10.37,2013-11-27 12:32:00,
2013-11-27 07:37:00,15.7,13.0,29.99,West,260,3.5,3.5,89,0.00,CLR,,0.00,WeatherDisplay:10.37,2013-11-27 12:37:00,
2013-11-27 07:42:00,15.8,12.9,29.99,West,261,0.0,0.0,88,0.00,CLR,,0.00,WeatherDisplay:10.37,2013-11-27 12:42:00,
2013-11-27 07:47:00,15.7,12.8,29.99,West,261,2.3,2.3,88,0.00,CLR,,0.00,WeatherDisplay:10.37,2013-11-27 12:47:00,
2013-11-27 07:52:00,15.7,12.8,29.99,West,261,2.3,2.3,88,0.00,CLR,,0.00,WeatherDisplay:10.37,2013-11-27 12:52:00,
2013-11-27 07:57:00,15.8,12.9,29.99,WNW,298,3.5,3.5,88,0.00,CLR,,0.00,WeatherDisplay:10.37,2013-11-27 12:57:00,
2013-11-27 08:02:00,15.9,13.0,29.99,WNW,296,3.5,3.5,88,0.00,CLR,,0.00,WeatherDisplay:10.37,2013-11-27 13:02:00,
2013-11-27 08:07:00,16.1,13.2,30.00,WNW,294,4.6,4.6,88,0.00,CLR,,0.00,WeatherDisplay:10.37,2013-11-27 13:07:00,
2013-11-27 08:12:00,16.2,13.3,29.99,WNW,294,0.0,0.0,88,0.00,CLR,,0.00,WeatherDisplay:10.37,2013-11-27 13:12:00,
2013-11-27 08:17:00,16.4,13.5,29.99,WSW,247,3.5,3.5,88,0.00,CLR,,0.00,WeatherDisplay:10.37,2013-11-27 13:17:00,
2013-11-27 08:22:00,16.7,13.5,30.00,WNW,282,3.0,3.0,87,0.00,CLR,,0.00,WeatherDisplay:10.37,2013-11-27 13:22:00,
2013-11-27 08:27:00,16.9,13.7,30.00,West,278,2.0,2.0,87,0.00,CLR,,0.00,WeatherDisplay:10.37,2013-11-27 13:27:00,
2013-11-27 08:32:00,17.2,14.0,30.00,WSW,245,3.5,3.5,87,0.00,CLR,,0.00,WeatherDisplay:10.37,2013-11-27 13:32:00,
2013-11-27 08:37:00,17.5,14.3,30.00,WSW,251,5.8,5.8,87,0.00,CLR,,0.00,WeatherDisplay:10.37,2013-11-27 13:37:00,
2013-11-27 08:42:00,17.8,14.3,30.00,WSW,253,5.8,5.8,86,0.00,CLR,,0.00,WeatherDisplay:10.37,2013-11-27 13:42:00,
2013-11-27 08:47:00,18.1,14.6,30.00,NW,313,4.0,4.0,86,0.00,CLR,,0.00,WeatherDisplay:10.37,2013-11-27 13:47:00,
2013-11-27 08:52:00,18.4,14.6,30.00,WNW,296,0.0,0.0,85,0.00,CLR,,0.00,WeatherDisplay:10.37,2013-11-27 13:52:00,
2013-11-27 08:57:00,18.7,14.9,30.00,NNW,331,3.5,0.0,85,0.00,CLR,,0.00,WeatherDisplay:10.37,2013-11-27 13:57:00,
2013-11-27 09:02:00,19.1,15.1,30.00,West,281,4.0,4.0,84,0.00,CLR,,0.00,WeatherDisplay:10.37,2013-11-27 14:02:00,
2013-11-27 09:07:00,19.5,15.2,30.00,WSW,252,3.5,3.5,83,0.00,CLR,,0.00,WeatherDisplay:10.37,2013-11-27 14:07:00,
2013-11-27 09:12:00,19.7,15.4,30.00,West,279,3.5,3.5,83,0.00,CLR,,0.00,WeatherDisplay:10.37,2013-11-27 14:12:00,
2013-11-27 09:17:00,19.7,15.4,30.00,West,259,9.2,9.2,83,0.00,CLR,,0.00,WeatherDisplay:10.37,2013-11-27 14:17:00,
2013-11-27 09:22:00,19.9,15.3,30.00,SW,230,0.0,0.0,82,0.00,CLR,,0.00,WeatherDisplay:10.37,2013-11-27 14:22:00,
2013-11-27 09:27:00,20.3,15.4,30.01,NW,323,4.6,4.6,81,0.00,CLR,,0.00,WeatherDisplay:10.37,2013-11-27 14:27:00,
2013-11-27 09:32:00,20.4,15.2,30.00,NNW,347,11.5,11.5,80,0.00,CLR,,0.00,WeatherDisplay:10.37,2013-11-27 14:32:00,
2013-11-27 09:37:00,20.6,15.4,30.00,SW,220,12.7,12.7,80,0.00,CLR,,0.00,WeatherDisplay:10.37,2013-11-27 14:37:00,
2013-11-27 09:42:00,20.7,15.2,30.00,North,355,0.0,0.0,79,0.00,CLR,,0.00,WeatherDisplay:10.37,2013-11-27 14:42:00,
2013-11-27 09:47:00,20.8,14.7,30.00,West,275,9.2,9.2,77,0.00,CLR,,0.00,WeatherDisplay:10.37,2013-11-27 14:47:00,
2013-11-27 09:52:00,21.1,15.3,30.00,WNW,291,8.1,8.1,78,0.00,CLR,,0.00,WeatherDisplay:10.37,2013-11-27 14:52:00,
2013-11-27 09:57:00,21.2,15.1,30.00,NW,325,4.6,4.6,77,0.00,CLR,,0.00,WeatherDisplay:10.37,2013-11-27 14:57:00,
2013-11-27 10:02:00,21.4,15.0,30.00,NW,322,10.4,10.4,76,0.00,CLR,,0.00,WeatherDisplay:10.37,2013-11-27 15:02:00,
2013-11-27 10:07:00,21.5,14.8,30.00,North,355,10.4,10.4,75,0.00,CLR,,0.00,WeatherDisplay:10.37,2013-11-27 15:07:00,
2013-11-27 10:12:00,21.4,14.4,30.00,NW,321,5.8,5.8,74,0.00,CLR,,0.00,WeatherDisplay:10.37,2013-11-27 15:12:00,
2013-11-27 10:17:00,21.3,14.0,30.00,North,355,10.4,10.4,73,0.00,CLR,,0.00,WeatherDisplay:10.37,2013-11-27 15:17:00,
2013-11-27 10:22:00,21.4,14.4,30.00,NW,318,12.7,12.7,74,0.00,CLR,,0.00,WeatherDisplay:10.37,2013-11-27 15:22:00,
2013-11-27 10:27:00,21.6,14.9,30.00,WNW,295,4.6,4.6,75,0.00,CLR,,0.00,WeatherDisplay:10.37,2013-11-27 15:27:00,
2013-11-27 10:32:00,21.6,14.3,30.01,NNW,328,10.4,10.4,73,0.00,CLR,,0.00,WeatherDisplay:10.37,2013-11-27 15:32:00,
2013-11-27 10:37:00,21.5,14.2,30.00,NNW,327,5.8,5.8,73,0.00,CLR,,0.00,WeatherDisplay:10.37,2013-11-27 15:37:00,
2013-11-27 10:42:00,21.6,14.0,30.00,WNW,292,15.0,15.0,72,0.00,CLR,,0.00,WeatherDisplay:10.37,2013-11-27 15:42:00,
2013-11-27 10:47:00,21.6,14.0,30.01,NW,324,6.0,6.0,72,0.00,CLR,,0.00,WeatherDisplay:10.37,2013-11-27 15:47:00,
2013-11-27 10:52:00,21.6,14.3,30.00,NW,306,2.3,2.3,73,0.00,CLR,,0.00,WeatherDisplay:10.37,2013-11-27 15:52:00,
2013-11-27 10:57:00,21.7,13.4,30.00,NW,304,17.3,17.3,70,0.00,CLR,,0.00,WeatherDisplay:10.37,2013-11-27 15:57:00,
2013-11-27 11:02:00,21.9,13.3,30.01,WNW,290,10.4,10.4,69,0.00,CLR,,0.00,WeatherDisplay:10.37,2013-11-27 16:02:00,
2013-11-27 11:07:00,22.0,13.7,30.00,NW,307,5.8,5.8,70,0.00,CLR,,0.00,WeatherDisplay:10.37,2013-11-27 16:07:00,
2013-11-27 11:12:00,22.0,13.4,30.00,NW,310,6.9,6.9,69,0.00,CLR,,0.00,WeatherDisplay:10.37,2013-11-27 16:12:00,
2013-11-27 11:17:00,22.4,13.8,30.00,NNE,15,11.5,11.5,69,0.00,CLR,,0.00,WeatherDisplay:10.37,2013-11-27 16:17:00,
2013-11-27 11:22:00,22.8,13.5,30.00,NNW,342,12.7,12.7,67,0.00,CLR,,0.00,WeatherDisplay:10.37,2013-11-27 16:22:00,
2013-11-27 11:27:00,22.6,12.9,30.00,NW,306,11.5,11.5,66,0.00,CLR,,0.00,WeatherDisplay:10.37,2013-11-27 16:27:00,
2013-11-27 11:32:00,22.4,12.8,30.00,ENE,59,15.0,15.0,66,0.00,CLR,,0.00,WeatherDisplay:10.37,2013-11-27 16:32:00,
2013-11-27 11:37:00,22.4,12.4,30.00,North,350,10.4,10.4,65,0.00,CLR,,0.00,WeatherDisplay:10.37,2013-11-27 16:37:00,
2013-11-27 11:42:00,22.8,13.5,30.00,NNW,334,6.0,6.0,67,0.00,CLR,,0.00,WeatherDisplay:10.37,2013-11-27 16:42:00,
2013-11-27 11:47:00,23.0,13.0,29.99,North,5,13.0,13.0,65,0.00,CLR,,0.00,WeatherDisplay:10.37,2013-11-27 16:47:00,
2013-11-27 11:52:00,22.6,12.9,30.00,NNW,334,5.8,5.8,66,0.00,CLR,,0.00,WeatherDisplay:10.37,2013-11-27 16:52:00,
2013-11-27 11:57:00,22.5,12.8,30.00,WNW,303,9.2,9.2,66,0.00,CLR,,0.00,WeatherDisplay:10.37,2013-11-27 16:57:00,
2013-11-27 12:02:00,22.2,12.9,29.99,NW,322,11.5,11.5,67,0.00,CLR,,0.00,WeatherDisplay:10.37,2013-11-27 17:02:00,
2013-11-27 12:07:00,22.1,12.1,29.99,WNW,294,19.6,19.6,65,0.00,CLR,,0.00,WeatherDisplay:10.37,2013-11-27 17:07:00,
2013-11-27 12:12:00,22.6,13.3,29.99,NNE,12,11.5,11.5,67,0.00,CLR,,0.00,WeatherDisplay:10.37,2013-11-27 17:12:00,
2013-11-27 12:17:00,22.8,11.7,29.99,NNW,333,12.7,12.7,62,0.00,CLR,,0.00,WeatherDisplay:10.37,2013-11-27 17:17:00,
2013-11-27 12:23:00,22.9,12.5,29.99,NNW,338,11.5,11.5,64,0.00,CLR,,0.00,WeatherDisplay:10.37,2013-11-27 17:23:00,
2013-11-27 12:28:00,23.4,11.9,29.99,NNW,346,3.5,3.5,61,0.00,CLR,,0.00,WeatherDisplay:10.37,2013-11-27 17:28:00,
2013-11-27 12:33:00,23.2,11.4,30.00,NNE,19,11.5,11.5,60,0.00,CLR,,0.00,WeatherDisplay:10.37,2013-11-27 17:33:00,
2013-11-27 12:38:00,22.8,11.0,30.00,NW,319,13.8,13.8,60,0.00,CLR,,0.00,WeatherDisplay:10.37,2013-11-27 17:38:00,
2013-11-27 12:43:00,22.6,10.8,29.99,NNW,327,11.5,11.5,60,0.00,CLR,,0.00,WeatherDisplay:10.37,2013-11-27 17:43:00,
2013-11-27 12:48:00,22.8,11.0,29.99,NNW,346,9.2,9.2,60,0.00,CLR,,0.00,WeatherDisplay:10.37,2013-11-27 17:48:00,
2013-11-27 12:53:00,22.5,10.7,29.99,North,355,10.4,10.4,60,0.00,CLR,,0.00,WeatherDisplay:10.37,2013-11-27 17:53:00,
2013-11-27 12:58:00,22.4,10.2,29.99,North,360,13.8,13.8,59,0.00,CLR,,0.00,WeatherDisplay:10.37,2013-11-27 17:58:00,
2013-11-27 13:03:00,22.5,11.4,29.99,NNW,341,6.9,6.9,62,0.00,CLR,,0.00,WeatherDisplay:10.37,2013-11-27 18:03:00,
2013-11-27 13:08:00,22.8,11.3,29.99,NW,325,12.7,12.7,61,0.00,CLR,,0.00,WeatherDisplay:10.37,2013-11-27 18:08:00,
2013-11-27 13:13:00,22.8,11.3,29.99,NW,325,6.9,6.9,61,0.00,CLR,,0.00,WeatherDisplay:10.37,2013-11-27 18:13:00,
2013-11-27 13:18:00,23.3,11.4,29.99,North,5,5.8,5.8,60,0.00,CLR,,0.00,WeatherDisplay:10.37,2013-11-27 18:18:00,
2013-11-27 13:23:00,23.4,11.2,29.98,NW,306,13.8,13.8,59,0.00,CLR,,0.00,WeatherDisplay:10.37,2013-11-27 18:23:00,
2013-11-27 13:28:00,23.1,10.5,29.98,North,355,10.4,10.4,58,0.00,CLR,,0.00,WeatherDisplay:10.37,2013-11-27 18:28:00,
2013-11-27 13:33:00,23.2,11.4,29.99,NNW,334,10.4,10.4,60,0.00,CLR,,0.00,WeatherDisplay:10.37,2013-11-27 18:33:00,
2013-11-27 13:38:00,23.5,11.3,29.99,WNW,286,11.5,11.5,59,0.00,CLR,,0.00,WeatherDisplay:10.37,2013-11-27 18:38:00,
2013-11-27 13:43:00,23.8,11.2,29.99,SW,223,11.5,11.5,58,0.00,CLR,,0.00,WeatherDisplay:10.37,2013-11-27 18:43:00,
2013-11-27 13:48:00,23.6,10.6,29.99,West,259,13.8,13.8,57,0.00,CLR,,0.00,WeatherDisplay:10.37,2013-11-27 18:48:00,
2013-11-27 13:53:00,24.0,11.7,29.99,North,360,3.5,3.5,59,0.00,CLR,,0.00,WeatherDisplay:10.37,2013-11-27 18:53:00,
2013-11-27 13:56:00,24.1,11.0,29.99,NW,309,17.3,17.3,57,0.00,CLR,,0.00,WeatherDisplay:10.37,2013-11-27 18:56:00,
2013-11-27 14:01:00,23.9,10.9,29.99,NNW,330,13.8,13.8,57,0.00,CLR,,0.00,WeatherDisplay:10.37,2013-11-27 19:01:00,
2013-11-27 14:06:00,23.9,10.5,29.99,WNW,302,13.8,13.8,56,0.00,CLR,,0.00,WeatherDisplay:10.37,2013-11-27 19:06:00,
2013-11-27 14:11:00,24.1,11.0,29.99,West,274,13.8,13.8,57,0.00,CLR,,0.00,WeatherDisplay:10.37,2013-11-27 19:11:00,
2013-11-27 14:16:00,23.9,10.5,30.00,West,276,12.0,12.0,56,0.00,CLR,,0.00,WeatherDisplay:10.37,2013-11-27 19:16:00,
2013-11-27 14:21:00,23.6,10.2,30.00,WNW,295,10.4,10.4,56,0.00,CLR,,0.00,WeatherDisplay:10.37,2013-11-27 19:21:00,
2013-11-27 14:26:00,23.4,10.4,30.00,NNW,327,11.5,11.5,57,0.00,CLR,,0.00,WeatherDisplay:10.37,2013-11-27 19:26:00,
2013-11-27 14:31:00,23.9,10.9,29.99,NNW,348,6.9,6.9,57,0.00,CLR,,0.00,WeatherDisplay:10.37,2013-11-27 19:31:00,
2013-11-27 14:36:00,23.8,10.8,30.00,WSW,243,6.9,6.9,57,0.00,CLR,,0.00,WeatherDisplay:10.37,2013-11-27 19:36:00,
2013-11-27 14:41:00,23.8,10.4,30.00,WNW,291,10.4,10.4,56,0.00,CLR,,0.00,WeatherDisplay:10.37,2013-11-27 19:41:00,
2013-11-27 14:46:00,24.2,11.1,29.99,NE,43,9.2,9.2,57,0.00,CLR,,0.00,WeatherDisplay:10.37,2013-11-27 19:46:00,
2013-11-27 14:51:00,24.4,10.5,29.99,WNW,288,10.4,10.4,55,0.00,CLR,,0.00,WeatherDisplay:10.37,2013-11-27 19:51:00,
2013-11-27 14:56:00,24.4,10.5,29.99,North,360,12.7,12.7,55,0.00,CLR,,0.00,WeatherDisplay:10.37,2013-11-27 19:56:00,
2013-11-27 15:01:00,24.7,10.8,30.00,NNE,14,2.3,2.3,55,0.00,CLR,,0.00,WeatherDisplay:10.37,2013-11-27 20:01:00,
2013-11-27 15:06:00,25.2,11.3,30.00,West,280,11.5,11.5,55,0.00,CLR,,0.00,WeatherDisplay:10.37,2013-11-27 20:06:00,
2013-11-27 15:11:00,24.8,10.1,30.01,NW,311,12.7,12.7,53,0.00,CLR,,0.00,WeatherDisplay:10.37,2013-11-27 20:11:00,
2013-11-27 15:16:00,24.2,9.9,30.01,NW,323,3.5,3.5,54,0.00,CLR,,0.00,WeatherDisplay:10.37,2013-11-27 20:16:00,
2013-11-27 15:21:00,24.1,9.8,30.01,WNW,288,15.0,15.0,54,0.00,CLR,,0.00,WeatherDisplay:10.37,2013-11-27 20:21:00,
2013-11-27 15:26:00,23.9,9.6,30.01,WNW,289,11.5,11.5,54,0.00,CLR,,0.00,WeatherDisplay:10.37,2013-11-27 20:26:00,
2013-11-27 15:31:00,23.9,10.1,30.01,WNW,298,14.0,14.0,55,0.00,CLR,,0.00,WeatherDisplay:10.37,2013-11-27 20:31:00,
2013-11-27 15:36:00,24.0,10.2,30.01,NNW,337,10.4,10.4,55,0.00,CLR,,0.00,WeatherDisplay:10.37,2013-11-27 20:36:00,
2013-11-27 15:41:00,24.0,10.2,30.02,NNW,342,3.5,3.5,55,0.00,CLR,,0.00,WeatherDisplay:10.37,2013-11-27 20:41:00,
2013-11-27 15:46:00,24.0,9.7,30.02,NNW,334,2.3,2.3,54,0.00,CLR,,0.00,WeatherDisplay:10.37,2013-11-27 20:46:00,
2013-11-27 15:51:00,23.8,10.0,30.02,WNW,299,6.9,6.9,55,0.00,CLR,,0.00,WeatherDisplay:10.37,2013-11-27 20:51:00,
2013-11-27 15:56:00,23.4,9.6,30.03,North,360,10.4,10.4,55,0.00,CLR,,0.00,WeatherDisplay:10.37,2013-11-27 20:56:00,
2013-11-27 16:01:00,23.3,9.1,30.03,NNW,340,6.9,6.9,54,0.00,CLR,,0.00,WeatherDisplay:10.37,2013-11-27 21:01:00,
2013-11-27 16:06:00,23.2,9.4,30.03,NNW,327,5.8,5.8,55,0.00,CLR,,0.00,WeatherDisplay:10.37,2013-11-27 21:06:00,
2013-11-27 16:11:00,23.3,9.5,30.03,WNW,292,6.9,6.9,55,0.00,CLR,,0.00,WeatherDisplay:10.37,2013-11-27 21:11:00,
2013-11-27 16:16:00,23.2,9.4,30.03,West,260,4.0,4.0,55,0.00,CLR,,0.00,WeatherDisplay:10.37,2013-11-27 21:16:00,
2013-11-27 16:21:00,23.0,8.8,30.03,NW,323,4.6,4.6,54,0.00,CLR,,0.00,WeatherDisplay:10.37,2013-11-27 21:21:00,
2013-11-27 16:26:00,22.9,8.7,30.03,NW,312,11.5,11.5,54,0.00,CLR,,0.00,WeatherDisplay:10.37,2013-11-27 21:26:00,
2013-11-27 16:31:00,22.9,8.7,30.03,WNW,290,5.8,5.8,54,0.00,CLR,,0.00,WeatherDisplay:10.37,2013-11-27 21:31:00,
2013-11-27 16:36:00,22.7,8.9,30.04,NW,304,9.2,9.2,55,0.00,CLR,,0.00,WeatherDisplay:10.37,2013-11-27 21:36:00,
2013-11-27 16:41:00,22.5,8.7,30.04,WNW,289,1.1,1.1,55,0.00,CLR,,0.00,WeatherDisplay:10.37,2013-11-27 21:41:00,
2013-11-27 16:46:00,22.3,9.4,30.05,WNW,289,1.1,0.0,57,0.00,CLR,,0.00,WeatherDisplay:10.37,2013-11-27 21:46:00,
2013-11-27 16:51:00,22.1,9.2,30.05,NNW,341,6.9,6.9,57,0.00,CLR,,0.00,WeatherDisplay:10.37,2013-11-27 21:51:00,
2013-11-27 16:56:00,22.0,9.1,30.06,NNW,329,0.0,0.2,57,0.00,CLR,,0.00,WeatherDisplay:10.37,2013-11-27 21:56:00,
2013-11-27 17:01:00,21.8,8.5,30.06,NW,321,5.8,5.8,56,0.00,CLR,,0.00,WeatherDisplay:10.37,2013-11-27 22:01:00,
2013-11-27 17:06:00,21.7,8.8,30.06,NW,321,2.3,0.0,57,0.00,CLR,,0.00,WeatherDisplay:10.37,2013-11-27 22:06:00,
2013-11-27 17:11:00,21.5,9.0,30.06,NW,322,0.0,0.0,58,0.00,CLR,,0.00,WeatherDisplay:10.37,2013-11-27 22:11:00,
2013-11-27 17:16:00,21.3,9.2,30.07,NW,321,0.0,0.0,59,0.00,CLR,,0.00,WeatherDisplay:10.37,2013-11-27 22:16:00,
2013-11-27 17:21:00,21.2,8.7,30.07,NW,321,3.5,3.5,58,0.00,CLR,,0.00,WeatherDisplay:10.37,2013-11-27 22:21:00,
2013-11-27 17:26:00,21.1,9.0,30.07,NW,305,5.8,5.8,59,0.00,CLR,,0.00,WeatherDisplay:10.37,2013-11-27 22:26:00,
2013-11-27 17:31:00,21.2,9.1,30.07,North,355,6.0,6.0,59,0.00,CLR,,0.00,WeatherDisplay:10.37,2013-11-27 22:31:00,
2013-11-27 17:36:00,21.3,9.2,30.08,NNW,333,4.6,4.6,59,0.00,CLR,,0.00,WeatherDisplay:10.37,2013-11-27 22:36:00,
2013-11-27 17:41:00,21.2,9.1,30.08,NNW,332,2.3,2.3,59,0.00,CLR,,0.00,WeatherDisplay:10.37,2013-11-27 22:41:00,
2013-11-27 17:46:00,21.1,9.4,30.08,WNW,298,5.0,5.0,60,0.00,CLR,,0.00,WeatherDisplay:10.37,2013-11-27 22:46:00,
2013-11-27 17:51:00,21.0,9.3,30.08,NW,322,5.8,5.8,60,0.00,CLR,,0.00,WeatherDisplay:10.37,2013-11-27 22:51:00,
2013-11-27 17:56:00,21.1,9.7,30.08,NW,325,0.0,0.0,61,0.00,CLR,,0.00,WeatherDisplay:10.37,2013-11-27 22:56:00,
2013-11-27 18:01:00,20.9,9.5,30.08,NNW,348,2.3,2.3,61,0.00,CLR,,0.00,WeatherDisplay:10.37,2013-11-27 23:01:00,
2013-11-27 18:06:00,20.7,9.7,30.09,NNW,346,0.0,0.0,62,0.00,CLR,,0.00,WeatherDisplay:10.37,2013-11-27 23:06:00,
2013-11-27 18:11:00,20.5,9.5,30.09,North,350,1.1,0.0,62,0.00,CLR,,0.00,WeatherDisplay:10.37,2013-11-27 23:11:00,
2013-11-27 18:16:00,20.3,9.3,30.10,North,350,2.3,0.0,62,0.00,CLR,,0.00,WeatherDisplay:10.37,2013-11-27 23:16:00,
2013-11-27 18:21:00,20.3,9.3,30.10,NNW,333,3.5,3.5,62,0.00,CLR,,0.00,WeatherDisplay:10.37,2013-11-27 23:21:00,
2013-11-27 18:26:00,20.2,9.6,30.10,NW,313,5.0,5.0,63,0.00,CLR,,0.00,WeatherDisplay:10.37,2013-11-27 23:26:00,
2013-11-27 18:31:00,20.2,9.6,30.10,NW,313,0.0,0.0,63,0.00,CLR,,0.00,WeatherDisplay:10.37,2013-11-27 23:31:00,
2013-11-27 18:36:00,20.0,9.1,30.11,NW,325,3.0,3.0,62,0.00,CLR,,0.00,WeatherDisplay:10.37,2013-11-27 23:36:00,
2013-11-27 18:41:00,20.0,9.1,30.10,NNW,342,2.3,2.3,62,0.00,CLR,,0.00,WeatherDisplay:10.37,2013-11-27 23:41:00,
2013-11-27 18:46:00,19.9,9.0,30.11,NNW,344,5.8,5.8,62,0.00,CLR,,0.00,WeatherDisplay:10.37,2013-11-27 23:46:00,
2013-11-27 18:51:00,19.8,8.9,30.11,NNW,337,3.5,3.5,62,0.00,CLR,,0.00,WeatherDisplay:10.37,2013-11-27 23:51:00,
2013-11-27 18:56:00,19.7,8.8,30.11,NNW,345,3.5,3.5,62,0.00,CLR,,0.00,WeatherDisplay:10.37,2013-11-27 23:56:00,
2013-11-27 19:01:00,19.7,9.1,30.12,NNW,339,5.8,5.8,63,0.00,CLR,,0.00,WeatherDisplay:10.37,2013-11-28 00:01:00,
2013-11-27 19:06:00,19.6,9.0,30.12,NNW,339,3.5,3.5,63,0.00,CLR,,0.00,WeatherDisplay:10.37,2013-11-28 00:06:00,
2013-11-27 19:11:00,19.3,9.1,30.12,NNW,338,3.5,3.5,64,0.00,CLR,,0.00,WeatherDisplay:10.37,2013-11-28 00:11:00,
2013-11-27 19:16:00,19.0,8.8,30.12,NNW,336,2.3,2.3,64,0.00,CLR,,0.00,WeatherDisplay:10.37,2013-11-28 00:16:00,
2013-11-27 19:21:00,18.8,9.0,30.12,NNW,336,0.0,0.0,65,0.00,CLR,,0.00,WeatherDisplay:10.37,2013-11-28 00:21:00,
2013-11-27 19:26:00,18.5,8.7,30.12,NNW,334,0.0,0.0,65,0.00,CLR,,0.00,WeatherDisplay:10.37,2013-11-28 00:26:00,
2013-11-27 19:31:00,18.4,8.9,30.12,NNW,331,0.0,0.0,66,0.00,CLR,,0.00,WeatherDisplay:10.37,2013-11-28 00:31:00,
2013-11-27 19:36:00,18.3,8.8,30.12,NNW,331,0.0,0.0,66,0.00,CLR,,0.00,WeatherDisplay:10.37,2013-11-28 00:36:00,
2013-11-27 19:41:00,18.1,8.6,30.12,NNW,331,0.0,0.0,66,0.00,CLR,,0.00,WeatherDisplay:10.37,2013-11-28 00:41:00,
2013-11-27 19:46:00,18.0,8.9,30.12,NNW,331,0.0,0.0,67,0.00,CLR,,0.00,WeatherDisplay:10.37,2013-11-28 00:46:00,
2013-11-27 19:51:00,17.9,8.8,30.13,NNW,331,0.0,0.0,67,0.00,CLR,,0.00,WeatherDisplay:10.37,2013-11-28 00:51:00,
2013-11-27 19:56:00,17.7,8.6,30.13,NNW,331,0.0,0.0,67,0.00,CLR,,0.00,WeatherDisplay:10.37,2013-11-28 00:56:00,
2013-11-27 20:01:00,17.6,8.8,30.13,NNW,331,1.0,0.0,68,0.00,CLR,,0.00,WeatherDisplay:10.37,2013-11-28 01:01:00,
2013-11-27 20:06:00,17.5,8.7,30.13,NNW,331,0.0,0.0,68,0.00,CLR,,0.00,WeatherDisplay:10.37,2013-11-28 01:06:00,
2013-11-27 20:11:00,17.4,8.6,30.13,NNW,331,0.0,0.0,68,0.00,CLR,,0.00,WeatherDisplay:10.37,2013-11-28 01:11:00,
2013-11-27 20:16:00,17.1,8.7,30.13,NNW,331,0.0,0.0,69,0.00,CLR,,0.00,WeatherDisplay:10.37,2013-11-28 01:16:00,
2013-11-27 20:21:00,16.8,8.4,30.13,NNW,331,0.0,0.0,69,0.00,CLR,,0.00,WeatherDisplay:10.37,2013-11-28 01:21:00,
2013-11-27 20:26:00,16.5,8.4,30.13,NNW,331,0.0,0.0,70,0.00,CLR,,0.00,WeatherDisplay:10.37,2013-11-28 01:26:00,
2013-11-27 20:31:00,16.4,8.3,30.13,NNW,331,0.0,0.0,70,0.00,CLR,,0.00,WeatherDisplay:10.37,2013-11-28 01:31:00,
2013-11-27 20:36:00,16.2,8.4,30.13,NNW,331,0.0,0.0,71,0.00,CLR,,0.00,WeatherDisplay:10.37,2013-11-28 01:36:00,
2013-11-27 20:41:00,16.2,8.4,30.13,NNW,331,0.0,0.0,71,0.00,CLR,,0.00,WeatherDisplay:10.37,2013-11-28 01:41:00,
2013-11-27 20:46:00,16.1,8.3,30.14,NNW,331,0.0,0.0,71,0.00,CLR,,0.00,WeatherDisplay:10.37,2013-11-28 01:46:00,
2013-11-27 20:51:00,16.0,8.6,30.13,NNW,331,0.0,0.0,72,0.00,CLR,,0.00,WeatherDisplay:10.37,2013-11-28 01:51:00,
2013-11-27 20:56:00,16.0,8.6,30.13,NNW,331,0.0,0.0,72,0.00,CLR,,0.00,WeatherDisplay:10.37,2013-11-28 01:56:00,
2013-11-27 21:01:00,16.1,8.7,30.14,NNW,330,2.0,0.0,72,0.00,CLR,,0.00,WeatherDisplay:10.37,2013-11-28 02:01:00,
2013-11-27 21:06:00,16.1,9.0,30.14,NNW,330,0.0,0.0,73,0.00,CLR,,0.00,WeatherDisplay:10.37,2013-11-28 02:06:00,
2013-11-27 21:11:00,16.2,9.1,30.14,NNW,330,0.0,0.0,73,0.00,CLR,,0.00,WeatherDisplay:10.37,2013-11-28 02:11:00,
2013-11-27 21:16:00,16.2,9.1,30.14,NNW,330,2.3,2.3,73,0.00,CLR,,0.00,WeatherDisplay:10.37,2013-11-28 02:16:00,
2013-11-27 21:21:00,16.3,9.5,30.14,NNW,329,3.5,3.5,74,0.00,CLR,,0.00,WeatherDisplay:10.37,2013-11-28 02:21:00,
2013-11-27 21:26:00,16.4,9.6,30.15,NNW,329,1.1,0.0,74,0.00,CLR,,0.00,WeatherDisplay:10.37,2013-11-28 02:26:00,
2013-11-27 21:31:00,16.4,9.6,30.15,NNW,329,1.1,1.1,74,0.00,CLR,,0.00,WeatherDisplay:10.37,2013-11-28 02:31:00,
2013-11-27 21:36:00,16.4,9.6,30.15,NNW,329,2.3,2.3,74,0.00,CLR,,0.00,WeatherDisplay:10.37,2013-11-28 02:36:00,
2013-11-27 21:41:00,16.4,9.9,30.15,NNW,329,0.0,0.0,75,0.00,CLR,,0.00,WeatherDisplay:10.37,2013-11-28 02:41:00,
2013-11-27 21:46:00,16.2,9.7,30.15,NNW,329,0.0,0.0,75,0.00,CLR,,0.00,WeatherDisplay:10.37,2013-11-28 02:46:00,
2013-11-27 21:51:00,16.1,9.6,30.15,NNW,329,0.0,0.0,75,0.00,CLR,,0.00,WeatherDisplay:10.37,2013-11-28 02:51:00,
2013-11-27 21:56:00,16.1,9.9,30.15,NNW,329,0.0,0.0,76,0.00,CLR,,0.00,WeatherDisplay:10.37,2013-11-28 02:56:00,
2013-11-27 22:01:00,16.0,9.8,30.15,NNW,329,0.0,0.0,76,0.00,CLR,,0.00,WeatherDisplay:10.37,2013-11-28 03:01:00,
2013-11-27 22:06:00,15.9,9.7,30.15,NNW,329,0.0,0.0,76,0.00,CLR,,0.00,WeatherDisplay:10.37,2013-11-28 03:06:00,
2013-11-27 22:11:00,15.8,9.9,30.15,NNW,329,1.1,1.1,77,0.00,CLR,,0.00,WeatherDisplay:10.37,2013-11-28 03:11:00,
2013-11-27 22:16:00,15.8,9.9,30.15,NNW,329,0.0,0.0,77,0.00,CLR,,0.00,WeatherDisplay:10.37,2013-11-28 03:16:00,
2013-11-27 22:21:00,15.8,10.2,30.15,NNW,329,0.0,0.0,78,0.00,CLR,,0.00,WeatherDisplay:10.37,2013-11-28 03:21:00,
2013-11-27 22:26:00,15.8,10.2,30.15,NNW,329,0.0,0.0,78,0.00,CLR,,0.00,WeatherDisplay:10.37,2013-11-28 03:26:00,
2013-11-27 22:31:00,16.0,10.3,30.15,NNW,329,0.0,0.0,78,0.00,CLR,,0.00,WeatherDisplay:10.37,2013-11-28 03:31:00,
2013-11-27 22:36:00,16.2,10.5,30.16,NNW,329,0.0,0.0,78,0.00,CLR,,0.00,WeatherDisplay:10.37,2013-11-28 03:36:00,
2013-11-27 22:41:00,16.4,10.7,30.16,NNW,329,0.0,0.0,78,0.00,CLR,,0.00,WeatherDisplay:10.37,2013-11-28 03:41:00,
2013-11-27 22:46:00,16.5,10.8,30.16,NNW,329,0.0,0.0,78,0.00,CLR,,0.00,WeatherDisplay:10.37,2013-11-28 03:46:00,
2013-11-27 22:51:00,16.6,10.9,30.16,NNW,329,0.0,0.0,78,0.00,CLR,,0.00,WeatherDisplay:10.37,2013-11-28 03:51:00,
2013-11-27 22:56:00,16.6,10.9,30.16,NNW,329,0.0,0.0,78,0.00,CLR,,0.00,WeatherDisplay:10.37,2013-11-28 03:56:00,
2013-11-27 23:01:00,16.6,10.9,30.16,NNW,329,0.0,0.0,78,0.00,CLR,,0.00,WeatherDisplay:10.37,2013-11-28 04:01:00,
2013-11-27 23:06:00,16.5,10.8,30.16,NNW,329,0.0,0.0,78,0.00,CLR,,0.00,WeatherDisplay:10.37,2013-11-28 04:06:00,
2013-11-27 23:11:00,16.4,10.7,30.16,NNW,329,1.1,0.0,78,0.00,CLR,,0.00,WeatherDisplay:10.37,2013-11-28 04:11:00,
2013-11-27 23:16:00,16.4,10.7,30.16,NNW,329,0.0,0.0,78,0.00,CLR,,0.00,WeatherDisplay:10.37,2013-11-28 04:16:00,
2013-11-27 23:21:00,16.3,10.6,30.16,NNW,329,0.0,0.0,78,0.00,CLR,,0.00,WeatherDisplay:10.37,2013-11-28 04:21:00,
2013-11-27 23:26:00,16.3,10.6,30.16,NNW,329,0.0,0.0,78,0.00,CLR,,0.00,WeatherDisplay:10.37,2013-11-28 04:26:00,
2013-11-27 23:31:00,16.3,10.9,30.16,NNW,329,0.0,0.0,79,0.00,CLR,,0.00,WeatherDisplay:10.37,2013-11-28 04:31:00,
2013-11-27 23:36:00,16.3,10.9,30.16,NNW,329,0.0,0.0,79,0.00,CLR,,0.00,WeatherDisplay:10.37,2013-11-28 04:36:00,
2013-11-27 23:41:00,16.4,11.0,30.16,NNW,329,0.0,0.0,79,0.00,CLR,,0.00,WeatherDisplay:10.37,2013-11-28 04:41:00,
2013-11-27 23:46:00,16.4,11.0,30.17,NNW,329,2.3,0.0,79,0.00,CLR,,0.00,WeatherDisplay:10.37,2013-11-28 04:46:00,
2013-11-27 23:51:00,16.4,11.3,30.17,NNW,329,2.3,2.3,80,0.00,CLR,,0.00,WeatherDisplay:10.37,2013-11-28 04:51:00,
2013-11-27 23:56:00,16.4,11.3,30.17,West,271,5.8,5.8,80,0.00,CLR,,0.00,WeatherDisplay:10.37,2013-11-28 04:56:00,